This demonstration page uses our WeatherBlox Daily Observations layout. Learn more.

Left ArrowRight Arrow

38.88101, -77.10428

Hourly Observations for December 4, 2019

Temp ( °F °C ) Dew Point ( °F °C ) Humidity (%) Winds ( mph kmh ) Pressure ( in mb ) Visibility ( mi km ) Precip ( " mm )
12:52 am 00:52 Cloudy 39 3.9 29 -1.7 67 67 W 3 6 29.67 1005 10 16.0934 0 0
1:52 am 01:52 Cloudy 40 4.4 30 -1.1 68 68 WNW 7 11 29.67 1005 10 16.0934 0 0
2:52 am 02:52 Cloudy with Light Rain 39 3.9 34 1.1 82 82 NW 13 20 29.67 1005 10 16.0934 0.001 0.001
3:52 am 03:52 Cloudy 39 3.9 35 1.7 86 86 Calm 29.66 1004 10 16.0934 0.001 0.001
4:52 am 04:52 Cloudy 38 3.3 35 1.7 89 89 Calm 29.65 1004 10 16.0934 0 0
5:52 am 05:52 Mostly Cloudy 37 2.8 34 1.1 89 89 SW 6 9 29.65 1004 10 16.0934 0 0
6:52 am 06:52 Partly Cloudy 37 2.8 34 1.1 89 89 SW 7 11 29.66 1004 10 16.0934 0 0
7:52 am 07:52 Mostly Cloudy 38 3.3 35 1.7 89 89 SSW 8 13 29.65 1004 10 16.0934 0 0
8:52 am 08:52 Mostly Cloudy 39 3.9 33 0.6 79 79 SW 8 13 29.65 1004 10 16.0934 0 0
9:52 am 09:52 Cloudy 40 4.4 32 0 73 73 SW 8 13 29.65 1004 10 16.0934 0 0
10:52 am 10:52 Cloudy 42 5.6 33 0.6 71 71 SSW 8 13 29.63 1003 10 16.0934 0 0
11:52 am 11:52 Cloudy 45 7.2 31 -0.6 58 58 SW 13 20 29.6 1002 10 16.0934 0 0
12:52 pm 12:52 Mostly Cloudy 46 7.8 31 -0.6 56 56 SW 10 17 29.55 1001 10 16.0934 0 0
1:52 pm 13:52 Mostly Cloudy 48 8.9 31 -0.6 52 52 S 9 15 29.54 1000 10 16.0934 0 0
2:52 pm 14:52 Mostly Cloudy 48 8.9 33 0.6 56 56 S 12 19 29.53 1000 10 16.0934 0 0
3:39 pm 15:39 Cloudy with Light Rain 48 8.9 32 0 54 54 SSW 9 15 29.53 1000 10 16.0934 0.001 0.001
3:52 pm 15:52 Cloudy 49 9.4 31 -0.6 50 50 SSW 6 9 29.53 1000 10 16.0934 0.001 0.001
4:52 pm 16:52 Mostly Cloudy with Light Rain 47 8.3 35 1.7 63 63 NNW 14 22 29.56 1001 10 16.0934 0.01 0.254
5:52 pm 17:52 Mostly Cloudy 47 8.3 33 0.6 59 59 WNW 8 13 29.59 1002 10 16.0934 0.001 0.001
6:52 pm 18:52 Partly Cloudy 47 8.3 28 -2.2 48 48 WNW 8 13 29.62 1003 10 16.0934 0 0
7:52 pm 19:52 Mostly Cloudy 46 7.8 29 -1.7 51 51 W 3 6 29.62 1003 10 16.0934 0 0
8:52 pm 20:52 Partly Cloudy 45 7.2 28 -2.2 52 52 VRB 5 7 29.63 1003 10 16.0934 0 0
9:52 pm 21:52 Mostly Cloudy 44 6.7 29 -1.7 55 55 WSW 5 7 29.64 1004 10 16.0934 0 0
10:52 pm 22:52 Cloudy with Light Rain 44 6.7 30 -1.1 58 58 W 5 7 29.64 1004 10 16.0934 0.001 0.001
11:52 pm 23:52 Cloudy 44 6.7 32 0 63 63 W 9 15 29.65 1004 10 16.0934 0.001 0.001

Powered by AerisWeather